Weather History for KGRB - September, 2013

Change the Weather History Date:

Friday, September 20, 2013

  Actual Average Record
Temperature  
Mean Temperature 64 °F 58 °F  
Max Temperature 72 °F 68 °F 92 °F (1908)
Min Temperature 55 °F 47 °F 27 °F (1956)
Degree Days  
Heating Degree Days 1 8  
Month to date heating degree days 84 104  
Since 1 July heating degree days 124 167  
Cooling Degree Days 0 1  
Month to date cooling degree days 54 30  
Year to date cooling degree days 532 392  
Growing Degree Days 14 (Base 50)    
Moisture  
Dew Point 62 °F    
Average Humidity 84    
Maximum Humidity 100    
Minimum Humidity 68    
Precipitation  
Precipitation 0.01 in 0.11 in 2.10 in (1965)
Month to date precipitation 2.67 2.04  
Year to date precipitation 26.66 22.44  
Snow  
Snow 0.00 in 0.00 in 0.00 in ()
Month to date snowfall 0.0 0.0  
Since 1 July snowfall 0.0 0.0  
Since 1 September snowfall 0.0 0.0  
Snow Depth 0.00 in    
Sea Level Pressure  
Sea Level Pressure 29.73 in    
Wind  
Wind Speed 9 mph (West)    
Max Wind Speed 21 mph    
Max Gust Speed 26 mph    
Visibility 9 miles    
Events Rain    
T = Trace of Precipitation, MM = Missing Value Source: NWS Daily Summary

Daily Weather History Graph

Daily Weather History Graph

Search for Another Location

Airport or City:

Trip Planner

Search our weather history database for the weather conditions in past years. The results will help you decide how hot, cold, wet, or windy it might be!

Date:

Astronomy

Sep. 20, 2013 Rise Set
Actual Time 6:37 AM CDT 6:53 PM CDT
Civil Twilight 6:08 AM CDT 7:22 PM CDT
Nautical Twilight 5:34 AM CDT 7:56 PM CDT
Astronomical Twilight 4:59 AM CDT 8:31 PM CDT
Moon 7:21 PM CDT (9/20) 7:56 AM CDT (9/20)
Length of Visible Light 13h 13m
Length of Day
12h 15m
Full, 98% of the Moon is Illuminated
Sep 20
Full
Sep 26
Last Quarter
Oct 4
New
Oct 11
First Quarter
Oct 18
Full

Hourly Weather History & Observations

Time (CDT) Temp. Dew Point Humidity Pressure Visibility Wind Dir Wind Speed Gust Speed Precip Events Conditions
12:53 AM 68.0 °F 66.0 °F 93% 29.70 in 10.0 mi SW 8.1 mph - 0.01 in   Mostly Cloudy
1:48 AM 68.0 °F 66.2 °F 94% 29.73 in 10.0 mi WSW 8.1 mph - N/A   Mostly Cloudy
1:53 AM 68.0 °F 66.9 °F 96% 29.72 in 10.0 mi WSW 8.1 mph - N/A   Mostly Cloudy
2:12 AM 68.0 °F 66.9 °F 96% 29.72 in 10.0 mi SW 9.2 mph - N/A   Mostly Cloudy
2:53 AM 68.0 °F 66.9 °F 96% 29.70 in 8.0 mi WSW 8.1 mph - N/A   Overcast
3:15 AM 68.0 °F 66.9 °F 96% 29.70 in 8.0 mi SW 6.9 mph - N/A   Overcast
3:29 AM 68.0 °F 66.9 °F 96% 29.69 in 8.0 mi SSW 4.6 mph - N/A   Overcast
3:53 AM 68.0 °F 66.9 °F 96% 29.68 in 8.0 mi SW 3.5 mph - 0.00 in   Overcast
4:53 AM 66.9 °F 66.0 °F 97% 29.68 in 8.0 mi WSW 5.8 mph - N/A   Mostly Cloudy
5:15 AM 66.9 °F 66.0 °F 97% 29.68 in 8.0 mi West 8.1 mph - N/A   Mostly Cloudy
5:27 AM 66.9 °F 66.0 °F 97% 29.68 in 8.0 mi WSW 6.9 mph - N/A   Mostly Cloudy
5:35 AM 66.9 °F 66.0 °F 97% 29.69 in 8.0 mi WSW 6.9 mph - N/A   Mostly Cloudy
5:53 AM 68.0 °F 66.0 °F 93% 29.69 in 8.0 mi WSW 8.1 mph - N/A   Overcast
6:53 AM 68.0 °F 66.0 °F 93% 29.70 in 7.0 mi West 5.8 mph - N/A   Overcast
7:53 AM 68.0 °F 66.0 °F 93% 29.71 in 5.0 mi SW 4.6 mph - N/A   Overcast
8:18 AM 68.0 °F 66.0 °F 93% 29.72 in 5.0 mi SW 6.9 mph - N/A   Overcast
8:48 AM 69.8 °F 66.2 °F 88% 29.73 in 6.0 mi WSW 6.9 mph - N/A   Overcast
8:53 AM 69.1 °F 66.0 °F 90% 29.72 in 6.0 mi WSW 5.8 mph - N/A   Overcast
9:07 AM 69.1 °F 66.0 °F 90% 29.72 in 8.0 mi West 6.9 mph - N/A   Overcast
9:31 AM 70.0 °F 66.0 °F 87% 29.73 in 9.0 mi WSW 10.4 mph - N/A   Overcast
9:53 AM 70.0 °F 66.0 °F 87% 29.73 in 10.0 mi WSW 8.1 mph - N/A   Overcast
10:53 AM 71.1 °F 64.9 °F 81% 29.72 in 10.0 mi WSW 12.7 mph - N/A   Mostly Cloudy
11:00 AM 71.1 °F 64.9 °F 81% 29.73 in 10.0 mi WSW 10.4 mph 18.4 mph N/A   Scattered Clouds
11:34 AM 71.1 °F 62.1 °F 73% 29.73 in 10.0 mi WSW 13.8 mph 18.4 mph N/A   Mostly Cloudy
11:53 AM 71.1 °F 63.0 °F 75% 29.72 in 10.0 mi WSW 11.5 mph - N/A   Scattered Clouds
12:23 PM 70.0 °F 62.1 °F 76% 29.73 in 10.0 mi West 16.1 mph - N/A   Mostly Cloudy
12:38 PM 71.1 °F 61.0 °F 70% 29.73 in 10.0 mi West 16.1 mph 21.9 mph N/A   Scattered Clouds
12:53 PM 71.1 °F 61.0 °F 70% 29.72 in 10.0 mi West 13.8 mph - N/A   Partly Cloudy
1:53 PM 71.1 °F 60.1 °F 68% 29.71 in 10.0 mi West 13.8 mph - N/A   Mostly Cloudy
2:53 PM 69.1 °F 59.0 °F 70% 29.72 in 10.0 mi West 19.6 mph 24.2 mph N/A   Scattered Clouds
3:53 PM 66.9 °F 57.0 °F 70% 29.73 in 10.0 mi West 18.4 mph 24.2 mph N/A   Mostly Cloudy
4:53 PM 68.0 °F 57.0 °F 68% 29.72 in 10.0 mi WSW 9.2 mph - N/A   Clear
5:53 PM 66.9 °F 55.9 °F 68% 29.72 in 10.0 mi West 8.1 mph 17.3 mph N/A   Clear
6:53 PM 62.1 °F 55.0 °F 78% 29.73 in 10.0 mi West 8.1 mph - N/A   Clear
7:53 PM 61.0 °F 55.0 °F 81% 29.75 in 10.0 mi West 10.4 mph - N/A   Clear
8:53 PM 60.1 °F 55.0 °F 83% 29.77 in 10.0 mi West 9.2 mph - N/A   Overcast
9:53 PM 60.1 °F 55.0 °F 83% 29.78 in 10.0 mi WNW 11.5 mph - N/A   Overcast
10:48 PM 59.0 °F 57.2 °F 94% 29.79 in 10.0 mi North 3.5 mph - 0.00 in Rain Light Rain
10:53 PM 59.0 °F 57.0 °F 93% 29.79 in 10.0 mi North 3.5 mph - 0.00 in   Overcast
11:08 PM 59.0 °F 55.9 °F 90% 29.79 in 10.0 mi NW 3.5 mph - N/A   Overcast
11:32 PM 57.9 °F 55.9 °F 93% 29.80 in 7.0 mi NNW 4.6 mph - 0.00 in Rain Light Rain
11:51 PM 57.2 °F 55.4 °F 94% 29.80 in 10.0 mi NW 4.6 mph - 0.01 in Rain Light Rain
11:53 PM 57.9 °F 55.9 °F 93% 29.80 in 10.0 mi NW 3.5 mph - 0.01 in Rain Light Rain